Helicity
20 33 46 56 63 56 73 73 69 55 47 39 34 35 36 30 32 38 36 34 23 11 1 -2 1 27 38 47 23 25 42 52 34 39 56 49 51 53 51 58 63 62 65 91 99 141 179
2 2 7 14 25 39 39 59 58 73 71 56 53 53 50 52 44 39 38 31 22 2 1 9 16 27 54 51 40 35 44 28 48 60 66 78 56 64 73 70 64 69 115 106 111 130 143
-19 -13 -4 -1 4 11 24 30 47 64 65 87 77 55 49 47 50 41 32 20 17 12 6 11 26 45 67 35 46 36 47 34 45 50 60 74 78 90 84 97 78 95 122 109 108 119 124
2 -15 -19 -20 -4 8 8 11 21 34 54 73 78 83 63 48 39 57 49 25 13 12 15 25 30 60 43 68 61 57 57 52 72 71 77 88 115 128 135 129 138 121 133 113 95 131 144
-33 -25 -23 -11 -7 -10 -9 1 7 10 21 38 47 72 90 86 73 52 58 53 13 37 34 37 57 76 57 75 66 61 67 59 72 88 117 117 135 150 163 169 149 158 100 111 112 108 147
-37 -46 -40 -33 -25 -23 -6 2 10 10 10 16 30 35 58 83 91 84 58 21 31 76 90 84 105 93 100 77 69 64 62 71 71 84 109 140 163 173 200 195 79 99 124 125 127 101 162
-39 -34 -30 -25 -21 -23 -25 -13 9 21 29 27 28 32 38 45 58 71 46 47 70 69 105 88 108 113 110 116 97 80 86 80 99 129 95 160 163 140 100 153 182 152 137 124 119 119 144
29 5 -11 -21 -15 -11 -9 -6 -0 7 19 34 44 52 50 38 43 33 33 56 61 60 51 102 147 159 143 134 118 93 115 94 120 114 165 194 111 103 164 160 185 177 170 140 142 140 121
64 31 12 13 18 10 2 10 -3 8 21 23 31 47 62 75 37 43 38 50 40 50 91 86 158 201 184 167 133 103 121 141 137 143 147 161 151 150 194 196 195 177 168 147 137 141 127
117 130 89 52 42 21 28 19 14 7 18 29 29 42 54 100 72 49 66 58 47 45 124 111 161 172 185 173 134 183 183 178 172 85 137 133 192 169 184 168 192 167 125 136 150 147 89
123 118 116 112 59 46 49 51 39 26 21 22 39 46 47 40 48 72 52 61 55 67 201 116 130 106 117 96 80 89 151 186 134 126 169 123 123 168 193 146 144 147 139 136 152 148 124
121 126 126 120 135 129 73 64 54 62 65 49 39 54 68 43 48 62 67 73 104 196 192 130 127 127 153 135 123 118 137 145 134 139 134 128 130 115 108 165 167 112 183 173 154 134 109
120 129 124 131 126 131 154 115 63 72 80 94 84 80 60 64 50 76 90 138 240 296 169 104 103 123 131 116 118 111 112 141 126 137 93 125 113 123 141 195 195 183 176 132 119 148 113
133 134 139 145 146 143 147 148 156 111 86 83 125 138 116 105 103 132 141 260 334 331 256 251 171 158 122 143 117 168 164 132 100 151 137 125 104 188 168 182 131 178 172 153 97 112 69
123 137 149 156 165 165 152 150 160 143 117 130 168 134 128 137 117 190 291 343 403 313 227 257 250 185 155 173 199 191 174 173 134 236 156 131 136 197 202 232 241 191 208 194 193 161 129
124 97 120 124 133 152 158 149 129 141 149 155 164 151 144 128 101 274 354 320 369 312 254 218 184 172 140 136 193 178 148 110 158 187 279 161 181 197 229 258 248 236 226 248 252 134 130
91 92 74 80 112 123 140 139 130 151 109 159 152 180 162 108 155 269 335 235 235 209 252 235 195 239 186 141 161 198 150 158 138 169 288 259 213 227 266 212 260 349 334 291 258 277 207
49 68 70 100 83 104 130 141 140 136 85 159 137 269 146 120 253 279 240 162 162 164 219 283 246 129 136 180 190 219 184 172 164 191 230 246 249 236 212 228 255 296 271 414 349 277 363
53 52 67 72 90 95 101 128 129 122 58 113 145 195 193 223 273 272 182 146 142 166 208 234 245 158 199 185 210 188 193 262 231 258 191 272 275 339 341 333 381 347 400 440 467 400 367
52 60 56 59 49 65 87 99 117 118 67 149 178 224 174 183 249 180 156 104 125 86 117 137 195 231 250 167 202 391 296 269 291 297 343 330 327 308 265 221 264 359 421 461 472 446 429
67 62 56 61 53 49 70 77 78 93 70 160 182 166 188 154 92 168 160 130 111 79 -27 38 71 128 175 197 161 217 271 291 306 364 399 447 396 375 380 392 393 383 352 362 426 343 421
64 61 52 54 54 39 49 62 46 59 61 172 228 191 181 169 90 -126 -56 68 -21 44 68 17 -27 15 112 172 216 163 175 305 375 443 435 444 454 361 368 427 437 369 405 407 342 382 403
80 72 41 40 59 41 43 53 49 49 73 173 195 188 186 165 127 107 88 62 42 -82 -100 -5 29 76 34 49 94 103 187 179 199 223 323 425 410 399 286 365 348 268 356 350 435 502 455
58 36 33 32 60 41 40 42 68 50 60 124 148 161 177 168 160 141 106 38 50 40 -105 8 72 81 87 80 92 122 173 170 176 187 260 311 356 385 372 306 232 262 257 287 230 310 377
34 30 28 23 46 41 34 40 39 41 38 142 125 151 159 151 131 115 71 64 38 46 9 51 78 110 77 70 41 38 45 84 132 244 261 352 347 338 364 352 321 194 203 174 172 183 194
24 5 19 23 47 44 46 45 39 30 46 184 137 111 139 145 99 93 72 68 74 53 15 16 60 41 36 85 72 50 43 63 93 118 187 261 362 331 322 308 237 223 214 162 182 123 135
12 12 21 25 50 38 46 39 40 50 18 147 127 132 126 122 73 134 82 96 86 80 35 31 25 -7 16 59 121 101 108 130 77 97 109 182 244 263 308 270 249 226 193 167 123 110 130
3 6 19 36 37 46 55 47 27 62 43 115 140 120 137 139 97 111 107 94 87 79 77 27 -29 -20 29 75 77 84 95 63 72 108 78 84 96 157 234 228 136 163 176 134 120 110 103
7 35 31 33 35 27 19 8 7 30 48 104 98 144 153 139 115 107 123 107 80 84 90 68 74 25 15 6 25 46 40 54 73 81 93 71 91 73 76 102 117 73 107 99 107 132 102
Wind_Speed
43 44 45 45 46 46 47 49 50 51 52 52 54 55 56 57 58 59 59 58 56 52 48 46 44 43 33 35 42 41 43 40 35 32 32 32 31 28 31 28 28 29 23 25 22 18 16
44 45 46 47 48 49 50 51 53 55 56 57 58 58 59 61 61 61 61 60 58 53 49 47 44 40 34 42 34 42 43 37 36 33 34 33 30 27 28 32 34 29 23 21 22 18 15
45 46 48 49 50 52 53 54 55 57 58 60 61 61 62 63 64 64 63 62 59 55 49 46 42 36 36 34 33 41 40 37 37 33 33 31 28 31 27 29 24 23 28 28 24 20 25
48 48 49 50 53 54 55 54 56 58 60 62 63 65 65 65 66 68 68 65 62 53 47 43 41 36 39 31 30 38 39 37 37 34 31 31 28 27 32 22 33 33 33 30 26 19 28
49 51 53 54 55 56 56 57 57 57 59 62 64 67 68 69 69 69 71 71 54 45 43 43 40 39 42 31 33 33 36 39 38 35 34 31 32 32 29 31 41 41 43 34 38 20 26
52 53 55 56 57 58 59 59 60 61 61 62 64 65 68 70 72 73 72 63 45 46 42 42 42 45 34 37 34 32 33 34 37 34 36 38 37 38 37 36 64 44 45 43 40 28 27
58 59 58 58 58 59 60 61 62 63 65 65 66 67 68 69 72 73 64 51 49 46 42 41 44 44 39 35 33 41 36 38 38 42 49 44 48 47 38 32 42 40 44 48 44 34 27
58 59 64 65 64 62 60 61 62 63 65 67 68 69 70 71 72 64 50 46 43 46 64 45 45 47 42 38 49 46 37 48 49 58 47 54 66 50 42 37 42 43 48 50 47 38 30
63 60 61 62 65 65 64 60 61 62 64 65 67 69 71 73 68 50 51 46 46 47 50 55 44 43 41 35 51 51 40 46 53 58 56 63 58 41 42 44 44 49 49 48 47 39 39
65 65 66 64 64 65 64 65 65 64 62 64 66 68 69 75 49 54 50 49 48 45 53 42 37 37 33 34 53 39 39 44 49 59 52 62 51 47 46 48 41 52 44 45 42 41 42
70 70 70 70 70 66 66 59 62 67 66 66 65 65 67 58 56 54 51 49 47 41 58 34 27 30 28 28 37 41 34 41 49 46 45 55 44 43 49 48 35 48 39 38 42 43 48
73 74 73 73 73 72 67 62 62 60 61 64 63 64 64 54 54 51 50 46 42 47 47 38 28 32 32 34 42 39 37 35 36 40 45 47 38 40 41 37 37 24 36 41 44 45 56
74 73 74 74 74 74 71 72 69 65 62 60 58 58 62 54 57 52 49 45 48 51 40 43 39 35 39 37 38 38 42 39 41 46 51 44 44 38 32 35 35 36 37 54 58 52 58
75 75 75 75 75 75 74 73 72 73 69 64 54 56 54 52 52 49 48 45 58 46 41 51 48 43 48 40 48 42 47 51 47 44 44 47 56 33 34 40 41 37 44 49 65 60 58
75 74 75 75 75 74 73 74 73 74 73 62 55 60 60 57 43 42 48 60 58 49 57 53 54 58 57 52 54 49 49 58 51 35 46 47 56 40 38 39 37 45 51 47 57 60 73
76 73 72 72 72 72 72 72 73 73 71 49 59 63 61 48 39 42 55 72 63 57 63 59 65 53 65 55 51 52 54 50 53 42 47 51 61 48 45 43 47 48 33 48 49 70 78
73 73 72 70 71 71 72 71 68 68 59 44 60 68 56 40 37 55 74 74 76 73 71 68 75 75 68 67 60 63 67 62 51 41 41 47 58 58 47 51 49 47 51 50 49 54 71
69 69 70 72 69 69 69 69 67 63 42 50 57 72 47 40 65 63 75 71 73 80 71 75 83 90 85 76 77 74 73 65 43 41 52 47 54 68 62 53 51 55 58 51 63 69 67
67 66 66 67 69 69 66 65 62 57 40 49 64 66 53 50 85 81 80 84 79 83 82 73 80 81 86 92 94 87 81 69 54 50 50 43 63 76 75 67 60 64 62 60 61 63 75
68 66 66 67 72 71 67 65 63 57 37 43 57 70 57 55 64 75 83 90 91 77 84 81 90 95 97 108 91 91 84 69 60 59 56 49 66 76 92 78 57 69 66 60 61 76 76
67 66 64 64 67 67 63 57 55 51 34 41 52 62 55 68 65 59 62 72 85 90 78 74 80 89 96 99 98 106 96 85 70 65 63 62 85 79 82 75 73 76 74 63 68 72 78
72 70 65 62 61 64 63 55 50 44 31 45 56 55 52 62 64 75 71 76 80 85 75 88 92 80 80 93 96 95 83 83 89 72 70 66 82 77 87 75 79 90 81 72 73 76 83
71 67 66 61 57 58 56 53 46 41 28 43 42 44 54 62 63 65 69 68 77 75 80 80 82 80 79 82 81 88 81 75 71 73 73 73 77 88 104 84 88 109 93 86 85 80 80
68 67 67 60 54 56 54 52 45 42 31 40 39 39 49 65 56 65 68 69 78 74 81 87 80 78 68 53 52 58 64 71 73 72 66 75 74 71 83 73 102 79 66 68 76 77 69
67 64 64 61 52 52 54 51 52 41 34 39 39 42 48 66 63 68 68 70 77 71 75 77 74 67 54 59 63 67 66 66 64 61 68 66 69 77 85 86 91 81 67 61 59 62 56
64 61 62 58 48 50 51 55 60 42 38 34 38 36 40 54 57 50 60 60 68 73 72 66 55 52 55 60 63 68 74 66 64 56 52 51 53 65 64 79 89 62 49 40 44 70 48
62 61 60 48 44 50 48 52 50 53 26 26 34 34 42 50 51 51 61 58 54 60 69 70 58 57 54 61 66 70 69 54 66 62 58 54 56 63 64 69 66 50 41 38 63 63 38
64 59 47 40 42 47 49 50 49 57 48 30 35 35 37 46 52 48 48 55 56 58 66 60 65 57 56 64 63 61 59 54 56 56 58 56 52 57 58 68 81 40 38 51 49 40 31
50 40 41 42 44 45 49 49 48 48 44 31 42 37 34 42 46 42 40 42 46 45 50 52 58 57 48 56 56 56 57 55 57 68 45 57 46 53 47 52 39 32 41 39 35 27 25
Wind_Direction
331 332 327 325 322 322 321 323 321 320 319 318 320 322 321 321 324 325 327 323 323 328 334 338 339 341 356 336 298 300 298 297 307 309 310 311 319 333 307 333 337 326 4 353 9 17 16
330 326 326 325 323 320 321 320 324 323 323 324 323 322 322 320 320 317 317 319 321 326 328 330 337 343 348 321 322 306 297 301 308 309 307 312 318 331 327 316 309 332 354 3 357 10 10
296 311 319 323 324 324 321 322 321 320 324 323 324 326 324 322 320 317 316 314 316 321 329 332 338 347 339 335 333 310 306 301 303 308 305 311 317 313 326 325 343 345 326 330 333 335 323
300 296 301 307 311 315 321 325 323 324 322 321 323 322 322 323 324 321 317 312 311 322 329 334 333 340 330 344 349 318 309 301 303 307 308 311 315 322 316 346 324 318 319 319 321 326 320
321 316 304 297 299 304 307 311 318 325 325 325 324 323 321 320 319 319 316 306 324 329 329 329 329 329 324 338 328 331 317 298 299 303 304 307 306 308 314 313 306 306 306 312 312 315 317
317 317 317 314 311 310 309 313 313 312 314 319 321 326 325 323 320 317 314 323 330 328 328 326 322 318 325 321 324 328 324 311 299 299 297 297 300 297 300 299 282 302 301 304 306 313 302
314 310 314 320 321 319 316 316 316 315 316 315 314 317 320 324 323 320 328 335 330 324 323 316 316 313 319 324 326 308 313 299 297 292 285 291 287 287 289 292 300 304 302 302 305 308 305
320 318 311 308 310 315 320 321 320 320 317 317 318 316 315 316 318 329 340 341 337 328 311 313 309 306 310 315 301 295 302 285 284 280 286 285 280 288 297 293 294 297 297 297 301 307 306
320 319 316 315 313 315 318 322 320 321 322 321 320 319 318 314 318 337 337 341 339 336 320 312 311 310 309 306 294 285 292 287 283 280 280 279 287 296 288 289 288 290 291 293 296 305 304
321 321 318 317 316 316 317 314 316 317 321 321 321 322 323 316 331 329 332 335 338 344 325 325 321 322 320 311 291 299 292 290 287 281 283 283 287 286 287 287 287 286 292 291 293 299 302
314 314 316 317 314 314 314 318 316 314 315 316 320 325 325 330 324 324 326 332 334 342 321 353 349 343 337 321 311 299 304 289 283 285 286 285 289 285 283 286 284 289 294 292 294 295 301
310 310 311 312 314 314 313 315 315 317 316 316 318 320 324 328 325 325 326 329 331 320 314 335 352 331 320 313 306 306 300 301 297 291 290 290 300 292 289 292 286 290 293 296 297 298 294
310 311 311 311 311 310 313 310 309 313 314 315 317 319 319 321 316 324 324 321 310 300 327 325 327 326 312 308 305 300 290 285 284 283 282 288 286 291 290 288 288 285 287 287 289 291 293
310 310 310 310 310 310 310 310 311 309 308 311 314 316 318 317 319 320 315 308 290 301 298 309 315 317 306 304 299 295 291 285 278 284 288 280 283 278 281 282 284 275 280 283 288 290 297
309 310 311 311 311 311 310 310 310 309 307 308 310 310 309 313 317 316 304 287 292 293 298 301 302 299 300 298 294 292 284 284 282 263 279 285 285 289 289 285 284 282 276 288 290 296 294
309 310 311 312 313 312 312 311 310 310 309 310 307 305 303 312 313 302 291 286 289 291 294 296 292 293 292 295 289 287 284 290 282 272 277 286 285 288 286 287 283 282 286 286 288 290 291
312 312 312 313 313 313 313 312 313 312 311 311 306 302 305 308 307 295 283 284 289 285 288 291 288 286 286 287 285 285 284 286 284 284 275 280 281 286 285 276 274 277 277 286 290 288 291
313 314 314 313 314 314 314 313 313 314 314 307 303 297 310 305 295 290 287 289 292 287 291 287 282 280 282 283 280 279 278 281 287 283 276 273 282 278 278 287 284 279 279 274 280 287 288
311 313 316 316 315 313 314 314 313 314 307 306 298 296 302 298 290 287 288 287 287 285 282 288 282 280 278 278 279 277 279 283 277 272 276 269 277 278 281 283 282 279 275 276 281 288 281
308 310 312 314 316 313 311 312 311 310 299 303 300 295 299 295 293 292 290 286 285 286 285 280 281 280 280 274 275 278 279 283 279 273 275 269 272 272 275 284 288 280 276 270 271 279 281
310 310 310 312 316 317 313 313 314 313 298 303 296 295 296 295 296 294 296 292 290 287 284 283 284 281 277 276 274 270 276 279 281 278 274 271 272 275 278 284 283 284 282 271 265 267 278
308 308 307 308 312 316 315 311 314 312 297 292 295 294 297 294 293 292 293 297 292 294 288 284 277 289 286 277 271 276 276 274 273 280 274 275 274 279 278 284 283 281 282 282 276 278 278
310 309 307 305 308 313 314 311 309 310 293 292 298 296 295 295 295 293 291 292 296 295 293 287 284 285 287 288 285 279 276 276 278 276 272 275 274 276 276 282 285 281 279 276 280 281 281
308 309 310 305 304 309 309 306 301 301 288 286 296 298 294 291 288 292 295 295 294 293 292 290 286 283 290 305 306 297 283 278 276 275 276 276 274 277 280 282 277 287 294 292 284 285 284
307 308 308 306 301 306 307 305 298 291 290 286 287 290 293 291 294 295 296 296 295 294 292 295 291 291 298 293 295 293 288 285 283 284 276 277 275 278 277 278 286 287 290 293 293 294 294
308 305 307 303 298 304 306 303 299 287 287 284 284 287 294 296 294 302 303 301 298 296 292 294 305 304 297 289 283 286 283 286 286 293 292 282 286 277 282 281 282 297 303 304 304 291 301
308 306 304 300 300 304 303 303 300 300 279 285 291 282 290 292 296 302 302 302 304 300 293 289 298 299 296 287 280 278 284 292 284 289 290 286 283 278 281 284 293 299 306 310 294 299 309
309 305 303 301 302 304 304 302 294 279 288 294 293 285 286 292 296 304 307 305 304 302 294 295 295 297 296 282 282 282 281 286 290 292 291 288 286 285 285 287 287 306 307 299 307 314 315
312 313 309 307 306 306 305 301 293 286 283 285 286 288 293 293 301 311 316 315 311 313 309 301 295 298 297 291 291 291 289 289 290 288 300 291 295 296 295 299 312 315 315 317 321 319 320